User: anonymous   Login
Location: Irma
(52.9170°N, 111.2330°W)
Time: 20:16:02
(UTC-06:00)
Language:

Cosmos 2279 Rocket - Orbit

View from above orbital plane
View from above orbital plane
View from above satellite
View from above satellite

Ground track
Ground track

The orbit data is extracted from the following two-line orbital elements,

1 23093U 94024B   14294.44139673  .00000075  00000-0  59993-4 0  9242
2 23093 082.9441 115.6793 0010065 194.8766 165.2097 13.77630951497903
Epoch (UTC): 21 October 2014 10:35:36
Eccentricity: 0.0010065
inclination: 82.9441°
perigee height: 965 km
apogee height: 980 km
right ascension of ascending node: 115.6793°
argument of perigee: 194.8766°
revolutions per day: 13.77630951
mean anomaly at epoch: 165.2097°
orbit number at epoch: 49790

The dashed part of the orbit path shows where the satellite is in the earth's shadow,  

DLR